Погода Пировское

Погода Пировское : погода сейчас, прогноз погоды и архив. Всё, что Вы хотите узнать о погоде Пировское!

Поиск расширенной информации на нашем сайте:

Другие новости

Новости СМИ2

Главная страница сайта

Новости сайта

02.10.2013

Напоминаем, что на нашем новом сайте вы можете получить высокодетализированные прогнозы погоды по пунктам России, СНГ и мира (включающие важные для авиации метеовеличины, такие как направление и скорость ветра, видимость, явления погоды, количество и форма облачности, нижняя и верхняя граница облачности), а также ознакомиться с разнообразными материалами по авиационной метеорологии и подборкой полезных ссылок на эту тему.

Сайт Метеоцентр.Азия посвящён разработке технологий оптимизации авиаметеорологического обслуживания, включая проектирование и перспективное создание нескольких автоматизированных авиаметеорологических систем:
- система выпуска высокодетальных прогностических карт явлений погоды для нижнего воздушного пространства по России и ближнему зарубежью;
- система верификации прогнозов TAF (выпускаемых синоптиками официальных АМСГ РФ и ближнего зарубежья) и AUTOTAF (выпускаемых сайтом Метеоцентр.Азия) - выявление ошибок, онлайн-сопоставление с фактической погодой METAR, автоматическое внесение коррективов в прогнозы при резком отклонении фактической погоды от прогноза, подсчёт оправдываемости прогнозов по элементам и в целом;
- система обработки, анализа и отображения авиаметеорологической информации для применения провайдерами метеорологической информации.

Рекомендуем: хостел Москва недорого - на сайте

Погода Пировское - сегодня

Время (UTC), дата Ветер
(°,м/с) 
Видим.   Явления Облачность Т
(°С)
Тd
(°С)
f(%) Тe
(°С)
Pmin
(гПа)
dP
(гПа)
Po
(мм)
O2
(г/м3)
Тmin Tmax R s Состояние
почвы
03 22.05.17 250 (З) 4{11}  н/о    н/о 
+14.1 +4.4 52 +14  1010  -1.3  742  283           
06 22.05.17 240 (ЮЗ) 4{10}  н/о    н/о 
+20.9 +4.9 35 +21  1008.6  -0.9  741  277           
09 22.05.17 250 (З) 6-11{12}  н/о    н/о 
+23.7 +3.4 27 +24  1007.1  -1.3  740  274           
12 22.05.17 270 (З) 6-14{15}  н/о    н/о 
+23.1 +2.2 25 +23  1007.4  -1.3  740  275    +25       
15 22.05.17 210 (ЮЗ) 3{14}  н/о    н/о 
+18.9 +4.5 39 +20  1007.6  0.1  740  278           
18 22.05.17 230 (ЮЗ) н/о    н/о 
+18.1 +4.7 41 +18  1006.5  -1.1  739  279           
21 22.05.17 220 (ЮЗ) н/о    н/о 
+17 +5.3 46 +17  1005.6  -1  738  279           
00 23.05.17 260 (З) 8-14{14}  н/о    н/о 
+17.5 +6.3 48 +17  1006  0.5  739  279  +15.5         
03 23.05.17 230 (ЮЗ) 4{14}  н/о    н/о 
+21.8 +8.3 42 +22  1003.7  -2  737  274  +13.3         
06 23.05.17 250 (З) 8-14{14}  н/о    н/о 
+27.5 +3.1 21 +28  1002.7  -0.6  737  269           
09 23.05.17 250 (З) 7-13{15}  н/о    н/о 
+29 +1.5 17 +29  1001.7  -0.9  736  268           
12 23.05.17 230 (ЮЗ) 6-10{14}  н/о    н/о 
+27.8 +0.4 17 +28  1001.1  -0.7  736  269    +29       
15 23.05.17 240 (ЮЗ) 2{10}  н/о    н/о 
+22.6 +1.9 26 +23  1001.1  -0.4  735  273           
18 23.05.17 тихо ()   н/о    н/о 
+17.9 +3.9 39 +18  1000.4  -1  735  277           
21 23.05.17 240 (ЮЗ) н/о    н/о 
+16.2 +3.8 44 +17  999  -1.5  734  278           
00 24.05.17 210 (ЮЗ) н/о    н/о 
+20.4 +3.5 33 +20  996.7  -1.9  732  274  +15.9         
03 24.05.17 240 (ЮЗ) 6-13{13}  н/о    н/о 
+23.7 +5.6 31 +24  995  -1.4  731  270           
06 24.05.17 250 (З) 8-16{19}  н/о    н/о 
+28.3 +6.4 25 +28  994.8  -0.1  731  266           
09 24.05.17 260 (З) 7-14{19}  н/о    н/о 
+27.1 +5.5 25 +27  997.2  2.3  733  268           
12 24.05.17 250 (З) 7-12{16}  н/о    н/о 
+25.9 +3.9 24 +26  999.4  734  270    +28.3       
15 24.05.17 230 (ЮЗ) 2{13}  н/о    н/о 
+21.1 +5.7 37 +21  1000.9  1.1  735  274           
18 24.05.17 тихо ()   н/о    н/о 
+14 +8.2 68 +14  1000.1  -1.3  734  280           
21 24.05.17 200 (Ю) 4{10}  н/о    н/о 
+16.7 +11.6 72 +21  999.3  -0.6  734  276           
00 25.05.17 290 (З) 7-13{13}  н/о    н/о 
+14.8 +10.6 76 +16  999.9  0.5  734  279  +13.6         
03 25.05.17 250 (З) 5-10{13}  н/о    н/о 
+13.6 +7.4 66 +13  1003.4  3.3  737  281  +13         
Время (UTC), дата Ветер
(°,м/с) 
Видим.   Явления Облачность Т
(°С)
Тd
(°С)
f(%) Тe
(°С)
Pmin
(гПа)
dP
(гПа)
Po
(мм)
O2
(г/м3)
Тmin Tmax R s Состояние
почвы

Для получения пояснительной информации подведите курсор к названию столбца.

ПОГОДА Пировское - архив

Всё, что Вы хотите узнать о погоде Пировское - удобно и подробно!

Выберите нужную дату (начиная с 1 января 2015* года) и нажмите кнопку "Найти".
Будут отображены архивные сводки погоды по пункту Пировское, начиная с указанной даты.


Отображать данные в формате CSV (для использования в таблицах Excel)


Внимание! Наш архив погоды предназначен исключительно для личного некоммерческого использования в познавательных целях. Если Вам необходимы официальные справки о состоянии погоды (для производственных, юридических, коммерческих и т.п. целей), обращайтесь в органы Росгидромета.

*Примечание: данная дата относится к архиву по метеостанциям СССР (Россия, СНГ, Балтия).
Архив по метеостанциям Зарубежной Европы и Азии (кроме Китая) хранится 10 дней, по другим регионам земного шара (Китай, Африка, Америка, Австралия, Океания) - 1 день.

Пировское - район местоположения метеостанции


Название, широта, долгота, высота метеостанции:
Пировское 57.6°ш. 92.3°д. 179 м над ур. моря [Российская Федерация]

Дополнительная информация

В oтличие oт бoльшинства пoгoдных сайтoв мы публикуем пoдрoбную метеoинфoрмацию в детальнoм прoфессиoнальнoм фoрмате.

Характеристики температуры и влажнoсти вoздуха измеряются на высoте 2 м в тени вдали oт зданий и деревьев.
Скoрoсть ветра измеряется на высoте 10 м (на урoвне рoста челoвека скoрoсть ветра ниже в 1.5-2 раза). Если метеoстанция нахoдится в гoрoде или в лесу, тo скoрoсть ветра занижена на 2-4 м/с пo сравнению с oткрытым местoм. Скoрoсть ветра над акватoриями крупных рек и oзёр, а также на вершинах хoлмoв на 2-5 м/с выше, чем в oбычных услoвиях.
Атмoсфернoе давление в разных тoчках местнoсти мoжет значительнo oтличаться oт давления на метеoстанции, в зависимoсти oт услoвий рельефа (при пoдъёме на 10 м давление пoнижается примернo на 1 мм рт.ст.).